Location: Kuffner-Sternwarte
(48.2130°N, 16.2960°E)
Time: 05:18:29
(UTC+02:00)

ACS3 Solar Sail - Pass Details

Date: 29 September 2024
Orbit: 963 x 1036 km, 97.4° (Epoch: 04 October)

Event Time Altitude Azimuth Distance (km) Brightness Sun altitude
Exits shadow 22:17:28 16° 231° (SW) 2,422 3.9 -34.7°
Maximum altitude 22:20:57 24° 272° (W) 1,983 3.7 -35.1°
Drops below altitude 10° 22:26:01 10° 324° (NW) 2,828 5.0 -35.7°
Sets 22:29:05 0° 338° (NNW) 3,775 5.7 -36.1°
